Showing default

SKYBEE-A01, 62671

Orbit data source: Space-Track

SKYBEE-A01, 62671 is a payload satellite owned by ConstellR (DE) in SSO that was launched on Tue, 14 Jan 2025 UTC via an FALCON 9 launch vehicle from the Air Force Western Test Range (AFWTR). Payload-class satellites include a variety of spacecraft equipped with specific instruments for various scientific and technological missions. These include communications satellites like Starlink; space stations such as the ISS; scientific satellites like the Hubble; Earth observation satellites from companies like Planet Labs, Umbra, and HawkEye 360; GPS; miniature CubeSats for education and research; and military/defense satellites.

Loading next visibility...
Identifier
62671, 2025-009BQ
Orbit
SSO
Last TLE update
2 days ago
Origin
Manufacturer
NanoAvionics
Mission
Operational Commercial Imaging
Bus & Motor
CUBESAT 16U MP42, Unknown motor
Mass
110 kg wet, 110 kg dry
Launch date (UTC)
2025-01-14 (3 months ago)
Launch vehicle
FALCON 9
Launch site
Air Force Western Test Range (AFWTR)
Object type
Payload
Rocket body
Debris
Shape & HBR
Box + 2 Pan, 1 m
Radar Cross Section
0.146 m², Medium (>0.1 m² and < 1m²)

Expand to show TLE details & history

TLE from 2 days ago
0 SKYBEE-A01
1 62671U 25009BQ  25118.95746967  .00004811  00000-0  23873-3 0  9998
2 62671  97.4309 199.7940 0005065 358.2432   1.8783 15.18166341 73438
Epoch: 2025-04-28T22:58Z
Definitive object data (Epoch: 2025-04-28T22:58:45.379Z)
Latitude
-0.00006°
Longitude
-2.05911°
Altitude
510.981 km
Speed
7.61 km/s
True Right ascension
13h 19m 10s
True Declination
0° 00' 00"
Sunlit
Object was in full shadow at TLE epoch
Visualization TLE readout
Latitude
7.88134°
Longitude
-1.59766°
Altitude
510.374 km
Speed
7.611 km/s
Apparent Right ascension
10h 50m 40s
Apparent Declination
-21° 24' 15"
Sunlit
Object is in full shadow
Visualization observer readout
Local Sidereal Time
18:57:57
Azimuth
272.54° WNW
Elevation
-37.64°
Doppler factor
1
Orbital elements
Apogee altitude
511.84 km
Perigee altitude
504.864 km
Semi-major axis
6,886.489 km
Eccentricity
0.0005065
Inclination
97.4309°
RAAN
199.794°
Arg. of periapsis
358.2432°
True anomaly
1.8802°
Mean anomaly
1.8783°
Eccentric anomaly
1.87925°
Mean motion
3.79793 °/min
BSTAR
0.00023873
Orbital period
94.79 mins
Loading maneuver chart data...
Loading SW <> Apogee altitude chart data...
Loading historical data...
Loading historical data...
Loading historical data...
Loading historical data...
Loading historical data...
Loading historical data...
Loading historical data...

SKYBEE-A01 Visibility forecast

Observer location: undefined°, undefined°

Span
Click to sort rows by Start time (UTC) header in descending order
Start Az.
Max El. time (UTC)
Max El. Az.
Max El.
End time (UTC)
End Az.
7 mins2025-04-30 18:14:47.697Z10.491° NNE2025-04-30 18:17:47.697Z354.677° N43.712°2025-04-30 18:21:47.697Z195.034° SSW
5 mins2025-05-01 04:54:47.697Z125.818° SE2025-05-01 04:56:47.697Z68.959° E30.392°2025-05-01 04:59:47.697Z7.72° NNE
|